This is the latest recevied weather packets stored in our database for station/object DJ0JJ-11. If no packets are shown the sender has not sent any weather packets the latest 10 day(s).
| Time | Temp. | Humidity | Pressure | Rain* | Wind** | Luminosity | Snow |
|---|---|---|---|---|---|---|---|
| 1787403027 | 20° C | 59% | 1022.1 hPa | - | - | - | - |
| 1787402127 | 20.56° C | 59% | 1022.1 hPa | - | - | - | - |
| 1787401227 | 20.56° C | 59% | 1022.1 hPa | - | - | - | - |
| 1787400327 | 20.56° C | 59% | 1022 hPa | - | - | - | - |
| 1787399427 | 20° C | 63% | 1022 hPa | - | - | - | - |
| 1787398526 | 19.44° C | 66% | 1022.1 hPa | - | - | - | - |
| 1787397626 | 18.89° C | 67% | 1022.2 hPa | - | - | - | - |
| 1787396726 | 18.33° C | 69% | 1022.2 hPa | - | - | - | - |
| 1787395826 | 18.89° C | 70% | 1022 hPa | - | - | - | - |
| 1787394926 | 18.33° C | 71% | 1022.1 hPa | - | - | - | - |
| 1787394026 | 18.33° C | 73% | 1022 hPa | - | - | - | - |
| 1787393126 | 17.78° C | 73% | 1022.1 hPa | - | - | - | - |
| 1787392226 | 17.22° C | 77% | 1022 hPa | - | - | - | - |
| 1787391326 | 17.22° C | 76% | 1022 hPa | - | - | - | - |
| 1787390426 | 17.22° C | 80% | 1021.9 hPa | - | - | - | - |
| 1787389525 | 16.11° C | 84% | 1021.8 hPa | - | - | - | - |
| 1787388625 | 16.11° C | 87% | 1021.6 hPa | - | - | - | - |
| 1787387725 | 15.56° C | 88% | 1021.5 hPa | - | - | - | - |
| 1787386824 | 15.56° C | 91% | 1021.3 hPa | - | - | - | - |
| 1787385924 | 15.56° C | 92% | 1021.2 hPa | - | - | - | - |
| 1787385026 | 15.56° C | 93% | 1021 hPa | - | - | - | - |
| 1787384126 | 15° C | 92% | 1020.8 hPa | - | - | - | - |
| 1787383226 | 15.56° C | 94% | 1020.6 hPa | - | - | - | - |
| 1787382326 | 15.56° C | 95% | 1020.5 hPa | - | - | - | - |
| 1787381426 | 15° C | 100% | 1020.3 hPa | - | - | - | - |
* Rain since midnight (hover to see other rain measurements)
** Current wind speed in m/s (hover to see current wind gust speed)